TimeCDT,TemperatureF,Dew PointF,Humidity,Sea Level PressureIn,VisibilityMPH,Wind Direction,Wind SpeedMPH,Gust SpeedMPH,PrecipitationIn,Events,Conditions,WindDirDegrees,DateUTC
12:35 AM,64.4,59.0,83,30.02,10.0,East,11.5,-,N/A,,Overcast,90,2013-05-02 05:35:00
12:56 AM,64.0,57.9,80,30.01,10.0,East,11.5,20.7,N/A,,Mostly Cloudy,90,2013-05-02 05:56:00
1:05 AM,62.6,57.2,82,30.02,10.0,East,15.0,-,N/A,,Mostly Cloudy,90,2013-05-02 06:05:00
1:56 AM,62.1,57.0,84,30.00,10.0,East,10.4,18.4,N/A,,Mostly Cloudy,80,2013-05-02 06:56:00
2:56 AM,62.1,55.9,80,29.99,10.0,ENE,10.4,-,N/A,,Overcast,70,2013-05-02 07:56:00
3:56 AM,62.1,55.9,80,29.99,10.0,East,11.5,-,N/A,,Overcast,80,2013-05-02 08:56:00
4:56 AM,62.1,57.0,84,30.00,10.0,East,8.1,-,N/A,,Overcast,80,2013-05-02 09:56:00
5:56 AM,62.1,57.0,84,30.01,10.0,ENE,5.8,-,N/A,,Overcast,70,2013-05-02 10:56:00
6:40 AM,62.6,57.2,82,30.03,10.0,East,8.1,-,N/A,,Overcast,80,2013-05-02 11:40:00
6:56 AM,63.0,57.9,84,30.02,10.0,ENE,5.8,-,N/A,,Overcast,70,2013-05-02 11:56:00
7:56 AM,64.9,59.0,81,30.04,10.0,East,11.5,-,N/A,,Overcast,90,2013-05-02 12:56:00
8:34 AM,66.2,59.0,78,30.05,10.0,East,10.4,19.6,N/A,,Overcast,100,2013-05-02 13:34:00
9:00 AM,-9999,-9999,N/A,-9999,-9999.0,North,-9999.0,-,N/A,Hail,Hail,0,2013-05-02 14:00:00
9:56 AM,69.1,60.1,73,30.04,10.0,East,12.7,-,N/A,,Overcast,100,2013-05-02 14:56:00
10:56 AM,68.0,61.0,78,30.04,10.0,East,11.5,-,N/A,,Overcast,80,2013-05-02 15:56:00
11:17 AM,69.8,60.8,73,30.05,10.0,East,11.5,18.4,N/A,,Overcast,80,2013-05-02 16:17:00
11:56 AM,69.1,62.1,78,30.03,10.0,East,10.4,-,N/A,,Overcast,80,2013-05-02 16:56:00
12:56 PM,69.1,63.0,81,30.02,9.0,NE,10.4,-,0.00,,Overcast,50,2013-05-02 17:56:00
1:42 PM,69.8,62.6,78,30.02,9.0,ENE,10.4,-,0.00,Rain,Light Rain,60,2013-05-02 18:42:00
1:47 PM,69.8,64.4,83,30.02,10.0,ENE,9.2,17.3,0.00,,Overcast,60,2013-05-02 18:47:00
1:56 PM,70.0,64.0,81,30.01,10.0,East,6.9,-,0.00,,Overcast,80,2013-05-02 18:56:00
2:51 PM,68.0,64.4,88,30.01,2.5,NE,8.1,-,0.01,Rain,Rain,50,2013-05-02 19:51:00
2:56 PM,68.0,64.0,87,30.00,2.5,NE,9.2,-,0.01,Rain,Light Rain,50,2013-05-02 19:56:00
2:59 PM,66.2,64.4,94,30.01,3.0,NE,6.9,-,0.00,Rain,Light Rain,50,2013-05-02 19:59:00
3:06 PM,66.2,64.4,94,30.00,8.0,ENE,6.9,-,0.00,Rain,Light Rain,60,2013-05-02 20:06:00
3:31 PM,69.8,64.4,83,29.99,10.0,ENE,5.8,-,0.00,,Overcast,60,2013-05-02 20:31:00
3:56 PM,69.1,64.0,84,29.98,10.0,East,8.1,-,0.00,,Overcast,80,2013-05-02 20:56:00
4:20 PM,71.6,64.4,78,29.98,10.0,ENE,11.5,16.1,N/A,,Overcast,60,2013-05-02 21:20:00
4:56 PM,72.0,63.0,73,29.96,10.0,ENE,10.4,18.4,N/A,,Mostly Cloudy,70,2013-05-02 21:56:00
5:04 PM,71.6,62.6,73,29.97,10.0,ENE,9.2,18.4,N/A,,Mostly Cloudy,70,2013-05-02 22:04:00
5:25 PM,71.6,62.6,73,29.97,10.0,ENE,12.7,19.6,N/A,,Overcast,70,2013-05-02 22:25:00
5:33 PM,71.6,62.6,73,29.97,10.0,East,12.7,19.6,N/A,,Overcast,80,2013-05-02 22:33:00
5:56 PM,71.1,62.1,73,29.96,10.0,ENE,10.4,18.4,N/A,,Mostly Cloudy,70,2013-05-02 22:56:00
6:56 PM,70.0,63.0,78,29.97,10.0,ENE,8.1,-,N/A,,Scattered Clouds,60,2013-05-02 23:56:00
7:56 PM,68.0,63.0,84,29.97,10.0,NNE,5.8,-,N/A,,Overcast,30,2013-05-03 00:56:00
8:56 PM,68.0,63.0,84,29.99,10.0,NE,5.8,-,N/A,,Overcast,50,2013-05-03 01:56:00
9:56 PM,68.0,61.0,78,29.99,10.0,ENE,8.1,-,N/A,,Overcast,70,2013-05-03 02:56:00
10:56 PM,68.0,61.0,78,29.99,10.0,ENE,6.9,-,N/A,,Overcast,70,2013-05-03 03:56:00
11:08 PM,66.2,60.8,83,29.99,10.0,ENE,8.1,-,N/A,,Overcast,60,2013-05-03 04:08:00
11:22 PM,66.2,60.8,83,29.99,10.0,ENE,9.2,-,N/A,,Overcast,70,2013-05-03 04:22:00
11:31 PM,66.2,60.8,83,29.99,10.0,ENE,8.1,-,N/A,,Overcast,70,2013-05-03 04:31:00
11:56 PM,66.9,60.1,79,29.98,10.0,ENE,9.2,-,N/A,,Overcast,70,2013-05-03 04:56:00